Location: Bu�n Treun
(12.1333°N, 108.3167°E)
Time: 00:23:04
(UTC+00:00)

ISS - Pass Details

Date: 13 July 2020
Orbit: 418 x 420 km, 51.6° (Epoch: 04 August)

Event Time Altitude Azimuth Distance (km) Brightness Sun altitude
Rises 12:32:45 0° 221° (SW) 2,351 0.2 -17.9°
Reaches altitude 10° 12:34:51 10° 223° (SW) 1,489 -0.8 -18.3°
Maximum altitude 12:38:11 68° 307° (NW) 451 -3.5 -19.0°
Drops below altitude 10° 12:41:31 10° 31° (NNE) 1,491 -1.0 -19.7°
Enters shadow 12:42:35 - 32° (NNE) 1,928 -0.4 -20.0°
